Year,Month,Day,Hour,Minute,Value (Times are PST for temperature in C)
2018,04,27,00,00,10.90
2018,04,27,00,01,10.90
2018,04,27,00,02,10.80
2018,04,27,00,03,10.80
2018,04,27,00,04,10.80
2018,04,27,00,05,10.80
2018,04,27,00,06,10.80
2018,04,27,00,07,10.80
2018,04,27,00,08,10.80
2018,04,27,00,09,10.80
2018,04,27,00,10,10.80
2018,04,27,00,11,10.80
2018,04,27,00,12,10.80
2018,04,27,00,13,10.80
2018,04,27,00,14,10.80
2018,04,27,00,15,10.80
2018,04,27,00,16,10.80
2018,04,27,00,17,10.80
2018,04,27,00,18,10.80
2018,04,27,00,19,10.80
2018,04,27,00,20,10.80
2018,04,27,00,21,10.80
2018,04,27,00,22,10.80
2018,04,27,00,23,10.80
2018,04,27,00,24,10.80
2018,04,27,00,25,10.90
2018,04,27,00,26,10.90
2018,04,27,00,27,10.90
2018,04,27,00,28,10.90
2018,04,27,00,29,11.00
2018,04,27,00,30,11.00
2018,04,27,00,31,10.90
2018,04,27,00,32,10.90
2018,04,27,00,33,10.90
2018,04,27,00,34,10.90
2018,04,27,00,35,10.90
2018,04,27,00,36,10.90
2018,04,27,00,37,10.90
2018,04,27,00,38,10.80
2018,04,27,00,39,10.80
2018,04,27,00,40,10.80
2018,04,27,00,41,10.80
2018,04,27,00,42,10.80
2018,04,27,00,43,10.80
2018,04,27,00,44,10.70
2018,04,27,00,45,10.70
2018,04,27,00,46,10.70
2018,04,27,00,47,10.70
2018,04,27,00,48,10.60
2018,04,27,00,49,10.60
2018,04,27,00,50,10.60
2018,04,27,00,51,10.60
2018,04,27,00,52,10.50
2018,04,27,00,53,10.50
2018,04,27,00,54,10.50
2018,04,27,00,55,10.50
2018,04,27,00,56,10.50
2018,04,27,00,57,10.50
2018,04,27,00,58,10.50
2018,04,27,00,59,10.50
2018,04,27,01,00,10.40
2018,04,27,01,01,10.40
2018,04,27,01,02,10.30
2018,04,27,01,03,10.30
2018,04,27,01,04,10.20
2018,04,27,01,05,10.20
2018,04,27,01,06,10.10
2018,04,27,01,07,10.10
2018,04,27,01,08,10.00
2018,04,27,01,09,10.00
2018,04,27,01,10,9.90
2018,04,27,01,11,9.80
2018,04,27,01,12,9.80
2018,04,27,01,13,9.80
2018,04,27,01,14,9.80
2018,04,27,01,15,9.80
2018,04,27,01,16,9.80
2018,04,27,01,17,9.80
2018,04,27,01,18,9.80
2018,04,27,01,19,9.80
2018,04,27,01,20,9.80
2018,04,27,01,21,9.80
2018,04,27,01,22,9.80
2018,04,27,01,23,9.80
2018,04,27,01,24,9.80
2018,04,27,01,25,9.80
2018,04,27,01,26,9.80
2018,04,27,01,27,9.80
2018,04,27,01,28,9.80
2018,04,27,01,29,9.80
2018,04,27,01,30,9.80
2018,04,27,01,31,9.80
2018,04,27,01,32,9.80
2018,04,27,01,33,9.80
2018,04,27,01,34,9.80
2018,04,27,01,35,9.80
2018,04,27,01,36,9.90
2018,04,27,01,37,9.90
2018,04,27,01,38,10.00
2018,04,27,01,39,10.00
2018,04,27,01,40,10.10
2018,04,27,01,41,10.10
2018,04,27,01,42,10.20
2018,04,27,01,43,10.20
2018,04,27,01,44,10.20
2018,04,27,01,45,10.20
2018,04,27,01,46,10.20
2018,04,27,01,47,10.20
2018,04,27,01,48,10.20
2018,04,27,01,49,10.20
2018,04,27,01,50,10.20
2018,04,27,01,51,10.20
2018,04,27,01,52,10.20
2018,04,27,01,53,10.20
2018,04,27,01,54,10.20
2018,04,27,01,55,10.20
2018,04,27,01,56,10.20
2018,04,27,01,57,10.20
2018,04,27,01,58,10.10
2018,04,27,01,59,10.10
2018,04,27,02,00,10.10
2018,04,27,02,01,10.00
2018,04,27,02,02,10.00
2018,04,27,02,03,9.90
2018,04,27,02,04,9.90
2018,04,27,02,05,9.80
2018,04,27,02,06,9.80
2018,04,27,02,07,9.70
2018,04,27,02,08,9.70
2018,04,27,02,09,9.70
2018,04,27,02,10,9.60
2018,04,27,02,11,9.60
2018,04,27,02,12,9.60
2018,04,27,02,13,9.50
2018,04,27,02,14,9.50
2018,04,27,02,15,9.50
2018,04,27,02,16,9.40
2018,04,27,02,17,9.40
2018,04,27,02,18,9.40
2018,04,27,02,19,9.30
2018,04,27,02,20,9.30
2018,04,27,02,21,9.30
2018,04,27,02,22,9.30
2018,04,27,02,23,9.30
2018,04,27,02,24,9.30
2018,04,27,02,25,9.30
2018,04,27,02,26,9.30
2018,04,27,02,27,9.30
2018,04,27,02,28,9.30
2018,04,27,02,29,9.30
2018,04,27,02,30,9.30
2018,04,27,02,31,9.40
2018,04,27,02,32,9.40
2018,04,27,02,33,9.30
2018,04,27,02,34,9.30
2018,04,27,02,35,9.30
2018,04,27,02,36,9.30
2018,04,27,02,37,9.20
2018,04,27,02,38,9.20
2018,04,27,02,39,9.20
2018,04,27,02,40,9.20
2018,04,27,02,41,9.20
2018,04,27,02,42,9.20
2018,04,27,02,43,9.20
2018,04,27,02,44,9.30
2018,04,27,02,45,9.30
2018,04,27,02,46,9.30
2018,04,27,02,47,9.20
2018,04,27,02,48,9.20
2018,04,27,02,49,9.20
2018,04,27,02,50,9.20
2018,04,27,02,51,9.20
2018,04,27,02,52,9.20
2018,04,27,02,53,9.20
2018,04,27,02,54,9.10
2018,04,27,02,55,9.10
2018,04,27,02,56,9.00
2018,04,27,02,57,9.00
2018,04,27,02,58,8.90
2018,04,27,02,59,8.90
2018,04,27,03,00,8.80
2018,04,27,03,01,8.80
2018,04,27,03,02,8.80
2018,04,27,03,03,8.80
2018,04,27,03,04,8.80
2018,04,27,03,05,8.80
2018,04,27,03,06,8.80
2018,04,27,03,07,8.80
2018,04,27,03,08,8.80
2018,04,27,03,09,8.70
2018,04,27,03,10,8.70
2018,04,27,03,11,8.70
2018,04,27,03,12,8.70
2018,04,27,03,13,8.70
2018,04,27,03,14,8.70
2018,04,27,03,15,8.70
2018,04,27,03,16,8.70
2018,04,27,03,17,8.60
2018,04,27,03,18,8.60
2018,04,27,03,19,8.60
2018,04,27,03,20,8.60
2018,04,27,03,21,8.60
2018,04,27,03,22,8.70
2018,04,27,03,23,8.70
2018,04,27,03,24,8.70
2018,04,27,03,25,8.70
2018,04,27,03,26,8.70
2018,04,27,03,27,8.70
2018,04,27,03,28,8.60
2018,04,27,03,29,8.60
2018,04,27,03,30,8.60
2018,04,27,03,31,8.60
2018,04,27,03,32,8.50
2018,04,27,03,33,8.50
2018,04,27,03,34,8.50
2018,04,27,03,35,8.40
2018,04,27,03,36,8.40
2018,04,27,03,37,8.40
2018,04,27,03,38,8.40
2018,04,27,03,39,8.40
2018,04,27,03,40,8.40
2018,04,27,03,41,8.40
2018,04,27,03,42,8.40
2018,04,27,03,43,8.40
2018,04,27,03,44,8.30
2018,04,27,03,45,8.30
2018,04,27,03,46,8.30
2018,04,27,03,47,8.30
2018,04,27,03,48,8.30
2018,04,27,03,49,8.30
2018,04,27,03,50,8.30
2018,04,27,03,51,8.30
2018,04,27,03,52,8.40
2018,04,27,03,53,8.40
2018,04,27,03,54,8.50
2018,04,27,03,55,8.50
2018,04,27,03,56,8.60
2018,04,27,03,57,8.70
2018,04,27,03,58,8.70
2018,04,27,03,59,8.70
2018,04,27,04,00,8.70
2018,04,27,04,01,8.70
2018,04,27,04,02,8.70
2018,04,27,04,03,8.60
2018,04,27,04,04,8.60
2018,04,27,04,05,8.60
2018,04,27,04,06,8.60
2018,04,27,04,07,8.60
2018,04,27,04,08,8.50
2018,04,27,04,09,8.50
2018,04,27,04,10,8.50
2018,04,27,04,11,8.40
2018,04,27,04,12,8.40
2018,04,27,04,13,8.40
2018,04,27,04,14,8.40
2018,04,27,04,15,8.40
2018,04,27,04,16,8.40
2018,04,27,04,17,8.40
2018,04,27,04,18,8.30
2018,04,27,04,19,8.30
2018,04,27,04,20,8.30
2018,04,27,04,21,8.30
2018,04,27,04,22,8.40
2018,04,27,04,23,8.40
2018,04,27,04,24,8.40
2018,04,27,04,25,8.40
2018,04,27,04,26,8.40
2018,04,27,04,27,8.40
2018,04,27,04,28,8.40
2018,04,27,04,29,8.40
2018,04,27,04,30,8.40
2018,04,27,04,31,8.40
2018,04,27,04,32,8.40
2018,04,27,04,33,8.40
2018,04,27,04,34,8.40
2018,04,27,04,35,8.40
2018,04,27,04,36,8.50
2018,04,27,04,37,8.50
2018,04,27,04,38,8.50
2018,04,27,04,39,8.50
2018,04,27,04,40,8.40
2018,04,27,04,41,8.40
2018,04,27,04,42,8.40
2018,04,27,04,43,8.30
2018,04,27,04,44,8.30
2018,04,27,04,45,8.30
2018,04,27,04,46,8.30
2018,04,27,04,47,8.30
2018,04,27,04,48,8.30
2018,04,27,04,49,8.30
2018,04,27,04,50,8.20
2018,04,27,04,51,8.20
2018,04,27,04,52,8.20
2018,04,27,04,53,8.20
2018,04,27,04,54,8.20
2018,04,27,04,55,8.10
2018,04,27,04,56,8.10
2018,04,27,04,57,8.10
2018,04,27,04,58,8.10
2018,04,27,04,59,8.10
2018,04,27,05,00,8.10
2018,04,27,05,01,8.10
2018,04,27,05,02,8.10
2018,04,27,05,03,8.10
2018,04,27,05,04,8.10
2018,04,27,05,05,8.10
2018,04,27,05,06,8.10
2018,04,27,05,07,8.10
2018,04,27,05,08,8.10
2018,04,27,05,09,8.10
2018,04,27,05,10,8.10
2018,04,27,05,11,8.10
2018,04,27,05,12,8.10
2018,04,27,05,13,8.10
2018,04,27,05,14,8.00
2018,04,27,05,15,8.00
2018,04,27,05,16,8.00
2018,04,27,05,17,7.90
2018,04,27,05,18,7.90
2018,04,27,05,19,7.90
2018,04,27,05,20,7.80
2018,04,27,05,21,7.80
2018,04,27,05,22,7.80
2018,04,27,05,23,7.70
2018,04,27,05,24,7.70
2018,04,27,05,25,7.70
2018,04,27,05,26,7.70
2018,04,27,05,27,7.70
2018,04,27,05,28,7.70
2018,04,27,05,29,7.70
2018,04,27,05,30,7.60
2018,04,27,05,31,7.60
2018,04,27,05,32,7.60
2018,04,27,05,33,7.60
2018,04,27,05,34,7.60
2018,04,27,05,35,7.60
2018,04,27,05,36,7.60
2018,04,27,05,37,7.60
2018,04,27,05,38,7.70
2018,04,27,05,39,7.70
2018,04,27,05,40,7.70
2018,04,27,05,41,7.80
2018,04,27,05,42,7.80
2018,04,27,05,43,7.80
2018,04,27,05,44,7.80
2018,04,27,05,45,7.90
2018,04,27,05,46,7.90
2018,04,27,05,47,7.90
2018,04,27,05,48,7.80
2018,04,27,05,49,7.80
2018,04,27,05,50,7.80
2018,04,27,05,51,7.70
2018,04,27,05,52,7.70
2018,04,27,05,53,7.70
2018,04,27,05,54,7.60
2018,04,27,05,55,7.60
2018,04,27,05,56,7.60
2018,04,27,05,57,7.60
2018,04,27,05,58,7.60
2018,04,27,05,59,7.50
2018,04,27,06,00,7.50
2018,04,27,06,01,7.50
2018,04,27,06,02,7.50
2018,04,27,06,03,7.50
2018,04,27,06,04,7.40
2018,04,27,06,05,7.40
2018,04,27,06,06,7.40
2018,04,27,06,07,7.40
2018,04,27,06,08,7.40
2018,04,27,06,09,7.30
2018,04,27,06,10,7.30
2018,04,27,06,11,7.30
2018,04,27,06,12,7.30
2018,04,27,06,13,7.30
2018,04,27,06,14,7.30
2018,04,27,06,15,7.30
2018,04,27,06,16,7.30
2018,04,27,06,17,7.30
2018,04,27,06,18,7.30
2018,04,27,06,19,7.20
2018,04,27,06,20,7.20
2018,04,27,06,21,7.20
2018,04,27,06,22,7.20
2018,04,27,06,23,7.20
2018,04,27,06,24,7.20
2018,04,27,06,25,7.20
2018,04,27,06,26,7.20
2018,04,27,06,27,7.20
2018,04,27,06,28,7.10
2018,04,27,06,29,7.10
2018,04,27,06,30,7.10
2018,04,27,06,31,7.00
2018,04,27,06,32,7.00
2018,04,27,06,33,7.00
2018,04,27,06,34,7.00
2018,04,27,06,35,7.00
2018,04,27,06,36,7.00
2018,04,27,06,37,7.00
2018,04,27,06,38,7.00
2018,04,27,06,39,7.00
2018,04,27,06,40,6.90
2018,04,27,06,41,6.90
2018,04,27,06,42,6.90
2018,04,27,06,43,6.90
2018,04,27,06,44,7.00
2018,04,27,06,45,7.00
2018,04,27,06,46,7.00
2018,04,27,06,47,7.10
2018,04,27,06,48,7.10
2018,04,27,06,49,7.10
2018,04,27,06,50,7.10
2018,04,27,06,51,7.10
2018,04,27,06,52,7.10
2018,04,27,06,53,7.10
2018,04,27,06,54,7.10
2018,04,27,06,55,7.10
2018,04,27,06,56,7.10
2018,04,27,06,57,7.10
2018,04,27,06,58,7.10
2018,04,27,06,59,7.10
2018,04,27,07,00,7.10
2018,04,27,07,01,7.10
2018,04,27,07,02,7.10
2018,04,27,07,03,7.20
2018,04,27,07,04,7.20
2018,04,27,07,05,7.20
2018,04,27,07,06,7.30
2018,04,27,07,07,7.30
2018,04,27,07,08,7.30
2018,04,27,07,09,7.40
2018,04,27,07,10,7.40
2018,04,27,07,11,7.50
2018,04,27,07,12,7.50
2018,04,27,07,13,7.60
2018,04,27,07,14,7.60
2018,04,27,07,15,7.70
2018,04,27,07,16,7.70
2018,04,27,07,17,7.80
2018,04,27,07,18,7.90
2018,04,27,07,19,7.90
2018,04,27,07,20,8.00
2018,04,27,07,21,8.10
2018,04,27,07,22,8.20
2018,04,27,07,23,8.30
2018,04,27,07,24,8.40
2018,04,27,07,25,8.50
2018,04,27,07,26,8.60
2018,04,27,07,27,8.70
2018,04,27,07,28,8.70
2018,04,27,07,29,8.80
2018,04,27,07,30,8.90
2018,04,27,07,31,9.00
2018,04,27,07,32,9.10
2018,04,27,07,33,9.20
2018,04,27,07,34,9.30
2018,04,27,07,35,9.30
2018,04,27,07,36,9.40
2018,04,27,07,37,9.50
2018,04,27,07,38,9.50
2018,04,27,07,39,9.60
2018,04,27,07,40,9.60
2018,04,27,07,41,9.70
2018,04,27,07,42,9.70
2018,04,27,07,43,9.80
2018,04,27,07,44,9.90
2018,04,27,07,45,9.90
2018,04,27,07,46,10.00
2018,04,27,07,47,10.00
2018,04,27,07,48,10.10
2018,04,27,07,49,10.20
2018,04,27,07,50,10.20
2018,04,27,07,51,10.30
2018,04,27,07,52,10.30
2018,04,27,07,53,10.40
2018,04,27,07,54,10.40
2018,04,27,07,55,10.50
2018,04,27,07,56,10.60
2018,04,27,07,57,10.60
2018,04,27,07,58,10.70
2018,04,27,07,59,10.70
2018,04,27,08,00,10.80
2018,04,27,08,01,10.80
2018,04,27,08,02,10.90
2018,04,27,08,03,11.00
2018,04,27,08,04,11.10
2018,04,27,08,05,11.20
2018,04,27,08,06,11.20
2018,04,27,08,07,11.30
2018,04,27,08,08,11.30
2018,04,27,08,09,11.40
2018,04,27,08,10,11.50
2018,04,27,08,11,11.60
2018,04,27,08,12,11.70
2018,04,27,08,13,11.80
2018,04,27,08,14,11.80
2018,04,27,08,15,11.90
2018,04,27,08,16,12.00
2018,04,27,08,17,12.10
2018,04,27,08,18,12.10
2018,04,27,08,19,12.20
2018,04,27,08,20,12.20
2018,04,27,08,21,12.30
2018,04,27,08,22,12.40
2018,04,27,08,23,12.40
2018,04,27,08,24,12.50
2018,04,27,08,25,12.60
2018,04,27,08,26,12.60
2018,04,27,08,27,12.70
2018,04,27,08,28,12.80
2018,04,27,08,29,12.80
2018,04,27,08,30,12.90
2018,04,27,08,31,13.00
2018,04,27,08,32,13.00
2018,04,27,08,33,13.10
2018,04,27,08,34,13.20
2018,04,27,08,35,13.20
2018,04,27,08,36,13.20
2018,04,27,08,37,13.20
2018,04,27,08,38,13.30
2018,04,27,08,39,13.30
2018,04,27,08,40,13.30
2018,04,27,08,41,13.30
2018,04,27,08,42,13.40
2018,04,27,08,43,13.40
2018,04,27,08,44,13.50
2018,04,27,08,45,13.60
2018,04,27,08,46,13.60
2018,04,27,08,47,13.70
2018,04,27,08,48,13.80
2018,04,27,08,49,13.80
2018,04,27,08,50,13.90
2018,04,27,08,51,14.00
2018,04,27,08,52,14.00
2018,04,27,08,53,14.10
2018,04,27,08,54,14.10
2018,04,27,08,55,14.20
2018,04,27,08,56,14.30
2018,04,27,08,57,14.40
2018,04,27,08,58,14.40
2018,04,27,08,59,14.50
2018,04,27,09,00,14.50
2018,04,27,09,01,14.60
2018,04,27,09,02,14.60
2018,04,27,09,03,14.70
2018,04,27,09,04,14.70
2018,04,27,09,05,14.80
2018,04,27,09,06,14.80
2018,04,27,09,07,14.80
2018,04,27,09,08,14.90
2018,04,27,09,09,14.90
2018,04,27,09,10,15.00
2018,04,27,09,11,15.00
2018,04,27,09,12,15.10
2018,04,27,09,13,15.10
2018,04,27,09,14,15.10
2018,04,27,09,15,15.10
2018,04,27,09,16,15.20
2018,04,27,09,17,15.20
2018,04,27,09,18,15.20
2018,04,27,09,19,15.30
2018,04,27,09,20,15.30
2018,04,27,09,21,15.40
2018,04,27,09,22,15.40
2018,04,27,09,23,15.50
2018,04,27,09,24,15.50
2018,04,27,09,25,15.60
2018,04,27,09,26,15.70
2018,04,27,09,27,15.70
2018,04,27,09,28,15.70
2018,04,27,09,29,15.70
2018,04,27,09,30,15.80
2018,04,27,09,31,15.80
2018,04,27,09,32,15.90
2018,04,27,09,33,15.90
2018,04,27,09,34,15.90
2018,04,27,09,35,16.00
2018,04,27,09,36,16.00
2018,04,27,09,37,16.10
2018,04,27,09,38,16.20
2018,04,27,09,39,16.20
2018,04,27,09,40,16.30
2018,04,27,09,41,16.40
2018,04,27,09,42,16.40
2018,04,27,09,43,16.40
2018,04,27,09,44,16.50
2018,04,27,09,45,16.50
2018,04,27,09,46,16.60
2018,04,27,09,47,16.60
2018,04,27,09,48,16.70
2018,04,27,09,49,16.70
2018,04,27,09,50,16.70
2018,04,27,09,51,16.70
2018,04,27,09,52,16.80
2018,04,27,09,53,16.80
2018,04,27,09,54,16.90
2018,04,27,09,55,16.90
2018,04,27,09,56,17.00
2018,04,27,09,57,17.00
2018,04,27,09,58,17.10
2018,04,27,09,59,17.10
2018,04,27,10,00,17.20
2018,04,27,10,01,17.30
2018,04,27,10,02,17.40
2018,04,27,10,03,17.40
2018,04,27,10,04,17.50
2018,04,27,10,05,17.70
2018,04,27,10,06,17.80
2018,04,27,10,07,17.80
2018,04,27,10,08,17.90
2018,04,27,10,09,17.90
2018,04,27,10,10,17.90
2018,04,27,10,11,17.90
2018,04,27,10,12,17.90
2018,04,27,10,13,17.90
2018,04,27,10,14,18.00
2018,04,27,10,15,18.00
2018,04,27,10,16,18.10
2018,04,27,10,17,18.10
2018,04,27,10,18,18.10
2018,04,27,10,19,18.20
2018,04,27,10,20,18.20
2018,04,27,10,21,18.20
2018,04,27,10,22,18.20
2018,04,27,10,23,18.20
2018,04,27,10,24,18.30
2018,04,27,10,25,18.30
2018,04,27,10,26,18.40
2018,04,27,10,27,18.40
2018,04,27,10,28,18.50
2018,04,27,10,29,18.50
2018,04,27,10,30,18.60
2018,04,27,10,31,18.60
2018,04,27,10,32,18.70
2018,04,27,10,33,18.80
2018,04,27,10,34,18.80
2018,04,27,10,35,18.80
2018,04,27,10,36,18.90
2018,04,27,10,37,18.90
2018,04,27,10,38,19.00
2018,04,27,10,39,19.00
2018,04,27,10,40,19.10
2018,04,27,10,41,19.10
2018,04,27,10,42,19.10
2018,04,27,10,43,19.10
2018,04,27,10,44,19.10
2018,04,27,10,45,19.10
2018,04,27,10,46,19.10
2018,04,27,10,47,19.10
2018,04,27,10,48,19.10
2018,04,27,10,49,19.00
2018,04,27,10,50,19.00
2018,04,27,10,51,18.90
2018,04,27,10,52,18.90
2018,04,27,10,53,19.00
2018,04,27,10,54,19.00
2018,04,27,10,55,19.10
2018,04,27,10,56,19.10
2018,04,27,10,57,19.20
2018,04,27,10,58,19.20
2018,04,27,10,59,19.20
2018,04,27,11,00,19.20
2018,04,27,11,01,19.20
2018,04,27,11,02,19.30
2018,04,27,11,03,19.30
2018,04,27,11,04,19.30
2018,04,27,11,05,19.30
2018,04,27,11,06,19.30
2018,04,27,11,07,19.30
2018,04,27,11,08,19.30
2018,04,27,11,09,19.30
2018,04,27,11,10,19.40
2018,04,27,11,11,19.50
2018,04,27,11,12,19.60
2018,04,27,11,13,19.60
2018,04,27,11,14,19.60
2018,04,27,11,15,19.60
2018,04,27,11,16,19.70
2018,04,27,11,17,19.70
2018,04,27,11,18,19.70
2018,04,27,11,19,19.80
2018,04,27,11,20,19.80
2018,04,27,11,21,19.80
2018,04,27,11,22,19.80
2018,04,27,11,23,19.90
2018,04,27,11,24,20.00
2018,04,27,11,25,20.00
2018,04,27,11,26,20.10
2018,04,27,11,27,20.10
2018,04,27,11,28,20.20
2018,04,27,11,29,20.30
2018,04,27,11,30,20.30
2018,04,27,11,31,20.40
2018,04,27,11,32,20.40
2018,04,27,11,33,20.40
2018,04,27,11,34,20.40
2018,04,27,11,35,20.40
2018,04,27,11,36,20.40
2018,04,27,11,37,20.50
2018,04,27,11,38,20.50
2018,04,27,11,39,20.50
2018,04,27,11,40,20.60
2018,04,27,11,41,20.60
2018,04,27,11,42,20.60
2018,04,27,11,43,20.60
2018,04,27,11,44,20.70
2018,04,27,11,45,20.70
2018,04,27,11,46,20.70
2018,04,27,11,47,20.80
2018,04,27,11,48,20.80
2018,04,27,11,49,20.80
2018,04,27,11,50,20.70
2018,04,27,11,51,20.70
2018,04,27,11,52,20.70
2018,04,27,11,53,20.70
2018,04,27,11,54,20.70
2018,04,27,11,55,20.70
2018,04,27,11,56,20.80
2018,04,27,11,57,20.80
2018,04,27,11,58,20.90
2018,04,27,11,59,21.00
2018,04,27,12,00,21.00
2018,04,27,12,01,21.10
2018,04,27,12,02,21.10
2018,04,27,12,03,21.20
2018,04,27,12,04,21.20
2018,04,27,12,05,21.20
2018,04,27,12,06,21.20
2018,04,27,12,07,21.20
2018,04,27,12,08,21.20
2018,04,27,12,09,21.20
2018,04,27,12,10,21.30
2018,04,27,12,11,21.40
2018,04,27,12,12,21.40
2018,04,27,12,13,21.50
2018,04,27,12,14,21.60
2018,04,27,12,15,21.70
2018,04,27,12,16,21.80
2018,04,27,12,17,21.80
2018,04,27,12,18,21.80
2018,04,27,12,19,21.80
2018,04,27,12,20,21.80
2018,04,27,12,21,21.80
2018,04,27,12,22,21.90
2018,04,27,12,23,21.90
2018,04,27,12,24,21.90
2018,04,27,12,25,21.90
2018,04,27,12,26,21.90
2018,04,27,12,27,21.90
2018,04,27,12,28,21.90
2018,04,27,12,29,22.00
2018,04,27,12,30,22.00
2018,04,27,12,31,22.00
2018,04,27,12,32,22.00
2018,04,27,12,33,22.10
2018,04,27,12,34,22.10
2018,04,27,12,35,22.10
2018,04,27,12,36,22.20
2018,04,27,12,37,22.20
2018,04,27,12,38,22.20
2018,04,27,12,39,22.10
2018,04,27,12,40,22.10
2018,04,27,12,41,22.20
2018,04,27,12,42,22.20
2018,04,27,12,43,22.20
2018,04,27,12,44,22.30
2018,04,27,12,45,22.30
2018,04,27,12,46,22.40
2018,04,27,12,47,22.40
2018,04,27,12,48,22.40
2018,04,27,12,49,22.40
2018,04,27,12,50,22.30
2018,04,27,12,51,22.30
2018,04,27,12,52,22.20
2018,04,27,12,53,22.20
2018,04,27,12,54,22.20
2018,04,27,12,55,22.20
2018,04,27,12,56,22.10
2018,04,27,12,57,22.10
2018,04,27,12,58,22.10
2018,04,27,12,59,22.20
2018,04,27,13,00,22.30
2018,04,27,13,01,22.40
2018,04,27,13,02,22.50
2018,04,27,13,03,22.50
2018,04,27,13,04,22.60
2018,04,27,13,05,22.60
2018,04,27,13,06,22.50
2018,04,27,13,07,22.50
2018,04,27,13,08,22.40
2018,04,27,13,09,22.30
2018,04,27,13,10,22.20
2018,04,27,13,11,22.10
2018,04,27,13,12,22.10
2018,04,27,13,13,22.10
2018,04,27,13,14,22.20
2018,04,27,13,15,22.20
2018,04,27,13,16,22.30
2018,04,27,13,17,22.30
2018,04,27,13,18,22.30
2018,04,27,13,19,22.30
2018,04,27,13,20,22.30
2018,04,27,13,21,22.40
2018,04,27,13,22,22.40
2018,04,27,13,23,22.40
2018,04,27,13,24,22.40
2018,04,27,13,25,22.50
2018,04,27,13,26,22.40
2018,04,27,13,27,22.40
2018,04,27,13,28,22.40
2018,04,27,13,29,22.40
2018,04,27,13,30,22.40
2018,04,27,13,31,22.40
2018,04,27,13,32,22.50
2018,04,27,13,33,22.50
2018,04,27,13,34,22.50
2018,04,27,13,35,22.60
2018,04,27,13,36,22.50
2018,04,27,13,37,22.50
2018,04,27,13,38,22.40
2018,04,27,13,39,22.30
2018,04,27,13,40,22.20
2018,04,27,13,41,22.00
2018,04,27,13,42,21.90
2018,04,27,13,43,21.80
2018,04,27,13,44,21.70
2018,04,27,13,45,21.50
2018,04,27,13,46,21.50
2018,04,27,13,47,21.40
2018,04,27,13,48,21.40
2018,04,27,13,49,21.40
2018,04,27,13,50,21.40
2018,04,27,13,51,21.50
2018,04,27,13,52,21.60
2018,04,27,13,53,21.70
2018,04,27,13,54,21.80
2018,04,27,13,55,21.90
2018,04,27,13,56,21.90
2018,04,27,13,57,21.90
2018,04,27,13,58,21.90
2018,04,27,13,59,21.80
2018,04,27,14,00,21.80
2018,04,27,14,01,21.90
2018,04,27,14,02,21.90
2018,04,27,14,03,22.00
2018,04,27,14,04,22.00
2018,04,27,14,05,22.00
2018,04,27,14,06,22.00
2018,04,27,14,07,21.90
2018,04,27,14,08,21.90
2018,04,27,14,09,21.90
2018,04,27,14,10,21.90
2018,04,27,14,11,21.90
2018,04,27,14,12,21.80
2018,04,27,14,13,21.80
2018,04,27,14,14,21.70
2018,04,27,14,15,21.70
2018,04,27,14,16,21.70
2018,04,27,14,17,21.70
2018,04,27,14,18,21.60
2018,04,27,14,19,21.60
2018,04,27,14,20,21.60
2018,04,27,14,21,21.60
2018,04,27,14,22,21.60
2018,04,27,14,23,21.70
2018,04,27,14,24,21.70
2018,04,27,14,25,21.80
2018,04,27,14,26,21.80
2018,04,27,14,27,21.80
2018,04,27,14,28,21.80
2018,04,27,14,29,21.80
2018,04,27,14,30,21.80
2018,04,27,14,31,21.90
2018,04,27,14,32,21.90
2018,04,27,14,33,21.90
2018,04,27,14,34,22.00
2018,04,27,14,35,22.00
2018,04,27,14,36,22.00
2018,04,27,14,37,22.00
2018,04,27,14,38,21.90
2018,04,27,14,39,21.90
2018,04,27,14,40,21.80
2018,04,27,14,41,21.80
2018,04,27,14,42,21.80
2018,04,27,14,43,21.80
2018,04,27,14,44,21.70
2018,04,27,14,45,21.70
2018,04,27,14,46,21.70
2018,04,27,14,47,21.60
2018,04,27,14,48,21.60
2018,04,27,14,49,21.60
2018,04,27,14,50,21.60
2018,04,27,14,51,21.70
2018,04,27,14,52,21.70
2018,04,27,14,53,21.80
2018,04,27,14,54,21.80
2018,04,27,14,55,21.70
2018,04,27,14,56,21.70
2018,04,27,14,57,21.70
2018,04,27,14,58,21.80
2018,04,27,14,59,21.80
2018,04,27,15,00,21.80
2018,04,27,15,01,21.80
2018,04,27,15,02,21.80
2018,04,27,15,03,21.80
2018,04,27,15,04,21.80
2018,04,27,15,05,21.80
2018,04,27,15,06,21.80
2018,04,27,15,07,21.80
2018,04,27,15,08,21.80
2018,04,27,15,09,21.80
2018,04,27,15,10,21.70
2018,04,27,15,11,21.70
2018,04,27,15,12,21.50
2018,04,27,15,13,21.40
2018,04,27,15,14,21.30
2018,04,27,15,15,21.30
2018,04,27,15,16,21.20
2018,04,27,15,17,21.10
2018,04,27,15,18,21.10
2018,04,27,15,19,21.00
2018,04,27,15,20,20.90
2018,04,27,15,21,20.80
2018,04,27,15,22,20.80
2018,04,27,15,23,20.70
2018,04,27,15,24,20.70
2018,04,27,15,25,20.70
2018,04,27,15,26,20.60
2018,04,27,15,27,20.60
2018,04,27,15,28,20.60
2018,04,27,15,29,20.70
2018,04,27,15,30,20.80
2018,04,27,15,31,20.80
2018,04,27,15,32,20.80
2018,04,27,15,33,20.80
2018,04,27,15,34,20.80
2018,04,27,15,35,20.80
2018,04,27,15,36,20.70
2018,04,27,15,37,20.70
2018,04,27,15,38,20.70
2018,04,27,15,39,20.70
2018,04,27,15,40,20.70
2018,04,27,15,41,20.70
2018,04,27,15,42,20.70
2018,04,27,15,43,20.70
2018,04,27,15,44,20.70
2018,04,27,15,45,20.70
2018,04,27,15,46,20.70
2018,04,27,15,47,20.70
2018,04,27,15,48,20.70
2018,04,27,15,49,20.70
2018,04,27,15,50,20.60
2018,04,27,15,51,20.60
2018,04,27,15,52,20.50
2018,04,27,15,53,20.40
2018,04,27,15,54,20.40
2018,04,27,15,55,20.30
2018,04,27,15,56,20.30
2018,04,27,15,57,20.20
2018,04,27,15,58,20.20
2018,04,27,15,59,20.20
2018,04,27,16,00,20.20
2018,04,27,16,01,20.10
2018,04,27,16,02,20.10
2018,04,27,16,03,20.00
2018,04,27,16,04,20.00
2018,04,27,16,05,20.00
2018,04,27,16,06,19.90
2018,04,27,16,07,19.80
2018,04,27,16,08,19.70
2018,04,27,16,09,19.70
2018,04,27,16,10,19.50
2018,04,27,16,11,19.30
2018,04,27,16,12,19.20
2018,04,27,16,13,19.10
2018,04,27,16,14,19.00
2018,04,27,16,15,18.90
2018,04,27,16,16,18.80
2018,04,27,16,17,18.80
2018,04,27,16,18,18.60
2018,04,27,16,19,18.60
2018,04,27,16,20,18.50
2018,04,27,16,21,18.40
2018,04,27,16,22,18.30
2018,04,27,16,23,18.20
2018,04,27,16,24,18.10
2018,04,27,16,25,18.10
2018,04,27,16,26,18.00
2018,04,27,16,27,17.90
2018,04,27,16,28,17.90
2018,04,27,16,29,17.80
2018,04,27,16,30,17.70
2018,04,27,16,31,17.70
2018,04,27,16,32,17.70
2018,04,27,16,33,17.70
2018,04,27,16,34,17.70
2018,04,27,16,35,17.70
2018,04,27,16,36,17.60
2018,04,27,16,37,17.60
2018,04,27,16,38,17.60
2018,04,27,16,39,17.60
2018,04,27,16,40,17.50
2018,04,27,16,41,17.50
2018,04,27,16,42,17.50
2018,04,27,16,43,17.50
2018,04,27,16,44,17.50
2018,04,27,16,45,17.40
2018,04,27,16,46,17.30
2018,04,27,16,47,17.20
2018,04,27,16,48,17.00
2018,04,27,16,49,17.00
2018,04,27,16,50,16.90
2018,04,27,16,51,16.80
2018,04,27,16,52,16.80
2018,04,27,16,53,16.80
2018,04,27,16,54,16.80
2018,04,27,16,55,16.70
2018,04,27,16,56,16.70
2018,04,27,16,57,16.70
2018,04,27,16,58,16.70
2018,04,27,16,59,16.70
2018,04,27,17,00,16.60
2018,04,27,17,01,16.60
2018,04,27,17,02,16.50
2018,04,27,17,03,16.40
2018,04,27,17,04,16.30
2018,04,27,17,05,16.30
2018,04,27,17,06,16.30
2018,04,27,17,07,16.20
2018,04,27,17,08,16.20
2018,04,27,17,09,16.20
2018,04,27,17,10,16.10
2018,04,27,17,11,16.10
2018,04,27,17,12,16.10
2018,04,27,17,13,16.10
2018,04,27,17,14,16.10
2018,04,27,17,15,16.00
2018,04,27,17,16,16.00
2018,04,27,17,17,16.00
2018,04,27,17,18,16.00
2018,04,27,17,19,16.00
2018,04,27,17,20,16.00
2018,04,27,17,21,15.90
2018,04,27,17,22,15.90
2018,04,27,17,23,15.90
2018,04,27,17,24,15.90
2018,04,27,17,25,15.80
2018,04,27,17,26,15.80
2018,04,27,17,27,15.80
2018,04,27,17,28,15.80
2018,04,27,17,29,15.80
2018,04,27,17,30,15.80
2018,04,27,17,31,15.80
2018,04,27,17,32,15.80
2018,04,27,17,33,15.80
2018,04,27,17,34,15.80
2018,04,27,17,35,15.80